OBJECT D, 48843

Orbit data source: Space-Track

You're viewing an Uncataloged Satellite

Recently launched and/or uncataloged satellites may have evolving metadata. Metadata may include but not limited to: Owner, Maufacturer, Bus, Motor, and Mission.

OBJECT D, 48843 is a satellite owned by 21AT (CN) in SSO that was launched on Fri, 11 Jun 2021 UTC via a CHANG ZHENG 2D launch vehicle from the Taiyaun Space Center, China (TSC). Unknown objects in Earth's orbit typically refer to objects detected orbiting the Earth but have not yet been identified or cataloged. These objects could be anything from previously untracked satellites, spent rocket stages, debris from satellite collisions, or even natural meteoroids temporarily captured by Earth's gravity.

Loading next visibility...
Identifier
48843, 2021-050D
Orbit
SSO
Country
Flag of CNCN / PRC
Related business
Manufacturer
DFH
Mission
Operational Commercial Imaging
Bus & Motor
CAST-3000E, Unknown motor
Mass
3,000 kg wet, 3,000 kg dry
Launch date (UTC)
2021-06-11 (5 years ago)
Launch vehicle
CHANG ZHENG 2D
Launch site
Taiyaun Space Center, China (TSC)
Object type
Unknown
Shape & HBR
Box + 2 Pan, 1.0 m
Radar Cross Section
6.000 m², Large (>1 m²)

Expand to show TLE details & history
Last TLE update: 21 hours ago

TLE from 21 hours ago
0 OBJECT D
1 48843U 21050D   26172.53960427  .00004981  00000-0  21244-3 0  9997
2 48843  97.3336 248.4765 0004127 240.4809 119.6017 15.23367648279623
Epoch: 2026-06-21T12:57Z
TLE epoch observation values (Epoch: 2026-06-21T12:57:01.808Z)
Latitude
-0.00004°
Longitude
144.48055°
Altitude
500.191 km
Speed
7.614 km/s
True Right ascension
16h 33m 54s
True Declination
0° 00' 00"
Sunlit
Object was in full shadow at epoch
Visualization orbit readout
Latitude
Unknown
Longitude
Unknown
Altitude
Unknown
Speed
Unknown
Apparent Right ascension
Unknown
Apparent Declination
Unknown
Sunlit
N/A
Visualization observer readout
Local Sidereal Time
21:25:13
Azimuth
Unknown
Elevation
Unknown
Doppler factor
Unknown
Orbital elements
Apogee altitude
495.485 km
Perigee altitude
489.814 km
Semi-major axis
6,870.787 km
Eccentricity
0.00041
Inclination
97.3336°
RAAN
248.4765°
Arg. of periapsis
240.4809°
True anomaly
119.64281°
Mean anomaly
119.6017°
Eccentric anomaly
119.62226°
Mean motion
3.81095 °/min
Orbital period
94.46 mins
BSTAR
0.00021244
Loading maneuver chart data...
Computing Atmospheric mass density...
Loading historical data...
Loading historical data...
Loading historical data...
Loading historical data...
Loading historical data...
Loading historical data...
Loading historical data...
Other satellites on launch #50 in the year 2021 (2021-06-11 UTC)

Documentation

Showing up to 5 results
|